Location: Kuffner-Sternwarte
(48.2130°N, 16.2960°E)
Time: 04:54:11
(UTC+02:00)

COROT - Pass Details

Date: 14 August 2018
Orbit: 602 x 887 km, 90.0° (Epoch: 22 October)

Event Time Altitude Azimuth Distance (km) Brightness Sun altitude
Rises 03:29:05 0° 146° (SSE) 3,215 9.0 -19.1°
Reaches altitude 10° 03:31:44 10° 136° (SE) 2,244 8.3 -18.8°
Maximum altitude 03:35:54 28° 78° (ENE) 1,307 7.7 -18.4°
Drops below altitude 10° 03:39:51 10° 20° (NNE) 2,109 9.4 -18.0°
Sets 03:42:16 0° 9° (N) 2,987 10.0 -17.7°
